[[{"header":{"parameterUnit":"m.s-1","parameterCategory":1,"la1":30.2991,"la2":30.254,"lo1":-89.0895,"lo2":-89.0444,"dy":0.0017,"dx":0.0017,"nx":28,"ny":28,"refTime":"2024-02-19T03:00:00:Z","depth":0,"parameterNumber":2,"parameterNumberName":"U-component_of_WINDS"},"data":[0,0,0,0,0,0,0,0,0,0,0,0,0,0,0,0,0,0,0,0,0,0,0,0,0,0,0,0,0,0,0,0,0,0,0,0,0,0,0,0,0,0,0,0,0,0,0,0,0,0,0,0,0,0,0,0,0,0,1.7657,1.7657,0,1.7689,1.7689,1.769,1.7584,1.7581,1.7578,1.7575,1.7608,1.7612,1.7615,0,0,0,0,0,0,0,0,0,0,0,0,0,1.7502,1.7506,1.7657,1.7657,1.7657,1.7689,1.7689,1.769,1.7585,1.7581,1.7577,1.7573,1.7607,1.7611,1.7616,0,0,0,0,0,0,0,0,0,0,0,0,0,1.7556,1.7507,1.7656,1.7609,1.7605,1.7689,1.7689,1.769,1.7586,1.7581,1.7576,1.7572,1.7605,1.7611,1.7616,1.7748,0,0,1.7634,1.7637,0,0,0,0,0,0,0,0,1.7553,1.7561,1.7615,1.7612,1.7608,1.7628,1.7647,1.7709,1.7587,1.7593,1.7575,1.7569,1.7618,1.7623,1.7639,1.7749,1.7751,1.7635,1.7638,1.7641,1.7642,0,0,0,0,0,0,0,1.7549,1.7559,1.7669,1.7616,1.7612,1.7585,1.7588,1.7658,1.7632,1.7592,1.7584,1.759,1.7615,1.7634,1.7639,1.7751,1.7634,1.764,1.7643,1.7645,1.7969,1.7974,0,0,0,0,0,0,1.7552,1.7557,1.7668,1.767,1.7568,1.7592,1.7595,1.7626,1.7631,1.7627,1.7594,1.7585,1.7626,1.7633,1.764,1.7793,1.7641,1.7646,1.7649,1.7964,1.797,1.7976,0,0,0,0,0,0,1.7549,1.7563,1.7667,1.7612,1.7623,1.76,1.7636,1.7629,1.7648,1.7632,1.7627,1.7618,1.7623,1.7632,1.7721,1.7792,1.7649,1.7654,1.7958,1.7966,1.7973,1.8101,0,0,0,0,0,0,1.7545,1.7562,1.7612,1.7614,1.7626,1.7749,1.7641,1.7633,1.7658,1.7647,1.7653,1.765,1.762,1.7713,1.7727,1.7798,1.7658,1.7951,1.7961,1.7971,1.809,1.8112,1.813,0,0,0,0,0,1.754,1.7647,1.7616,1.763,1.7688,1.7753,1.776,1.7723,1.7664,1.7714,1.7704,1.765,1.7783,1.7724,1.7738,1.7812,1.7947,1.7959,1.797,1.8081,1.8107,1.813,0,0,0,0,0,0,1.7655,1.7647,1.7611,1.7722,1.7739,1.7735,1.7797,1.7753,1.7787,1.7775,1.7727,1.773,1.7828,1.7829,1.7763,1.7938,1.7854,1.787,1.7934,1.7959,1.7979,1.7976,1.7663,0,0,0,0,0,1.7694,1.7747,1.7737,1.7836,1.7846,1.782,1.7847,1.7817,1.7833,1.7839,1.7836,1.7853,1.7898,1.7929,1.797,1.809,1.8089,1.8148,1.8168,1.8184,1.8198,1.826,1.8285,1.8014,1.8014,1.8013,0,0,1.7774,1.7776,1.7812,1.7859,1.7868,1.7924,1.7827,1.789,1.7931,1.7849,1.7932,1.7931,1.7946,1.8052,1.8098,1.8055,1.8272,1.8199,1.8213,1.8217,1.8274,1.83,1.8323,1.8022,1.802,1.8019,0,0,1.7947,1.7955,1.8037,1.8049,1.8064,1.8046,1.8066,1.8069,1.8064,1.8148,1.8087,1.8134,1.8214,1.8227,1.8244,1.8422,1.8373,1.8437,1.8542,1.8603,1.8625,1.8643,1.8705,1.8728,1.8451,1.8451,1.8451,0,1.8044,1.8126,1.8085,1.8153,1.8174,1.8103,1.8185,1.8198,1.8227,1.8243,1.8196,1.8293,1.8298,1.8405,1.8448,1.8465,1.8485,1.8435,1.8625,1.8643,1.866,1.8719,1.8742,1.8458,1.8458,1.8457,1.8456,0,1.8244,1.8302,1.8367,1.8395,1.8424,1.85,1.8469,1.8504,1.8472,1.8459,1.8544,1.8548,1.8588,1.8611,1.8581,1.8713,1.8686,1.8633,1.8547,1.8694,1.8748,1.8771,1.8469,1.8467,1.8464,1.8462,0,0,1.8491,1.8496,1.852,1.8532,1.8543,1.8587,1.8658,1.8697,1.8727,1.8749,1.8806,1.8875,1.8825,1.8845,1.8815,1.8869,1.9008,1.8808,1.8808,1.8844,1.9152,1.9191,1.9218,1.8976,1.898,1.8983,1.915,0,1.866,1.8782,1.8747,1.8869,1.8921,1.8853,1.8915,1.8929,1.8919,1.8961,1.8949,1.8998,1.8929,1.894,1.8991,1.898,1.9069,1.8968,1.9028,1.903,1.9025,1.9247,1.9288,1.9446,1.9171,1.9175,1.9178,0,1.8874,1.8904,1.9031,1.9033,1.9053,1.911,1.9142,1.9183,1.9197,1.9186,1.9208,1.9166,1.9235,1.9151,1.9245,1.9177,1.9199,1.9198,1.9203,1.9206,1.9112,1.9254,1.9495,1.9519,1.9211,1.9208,1.9206,0,1.9039,1.9112,1.9196,1.9209,1.9213,1.9254,1.9258,1.9267,1.9292,1.9321,1.9336,1.9373,1.9392,1.9421,1.939,1.9332,1.9488,1.9401,1.9479,1.948,1.9514,1.9512,1.9761,1.9532,1.9532,1.9531,1.9531,0,1.9231,1.9311,1.927,1.9323,1.941,1.9369,1.9456,1.9452,1.9461,1.951,1.9455,1.9502,1.946,1.9503,1.948,1.956,1.957,1.9562,1.9555,1.9566,1.9567,1.9579,1.9567,1.9537,1.9536,1.9535,1.9534,0,1.943,1.9406,1.9494,1.9491,1.9492,1.9557,1.9554,1.9601,1.9587,1.9651,1.9663,1.9641,1.9689,1.9662,1.9712,1.9696,1.98,1.9778,1.9795,1.9789,1.9868,1.986,2.0132,2.0165,1.9916,1.9918,1.9921,0,1.9554,1.9613,1.9617,1.9646,1.9654,1.9702,1.9727,1.9689,1.9717,1.9737,1.9782,1.9826,1.9858,1.9939,1.9927,1.9964,1.9942,2.0035,1.9947,1.9956,1.9941,1.9937,1.9942,2.0052,2.0055,2.0057,2.0059,0,1.9775,1.9759,1.9798,1.9833,1.9865,1.989,1.9911,1.9938,1.99,1.9935,1.9984,2.0009,2.006,2.0103,2.0135,2.0138,2.0092,2.0087,2.0106,2.0118,2.0125,2.0121,1.9841,2.008,2.0078,2.0077,2.0076,2.0075,1.9938,1.9987,1.9997,2.0042,2.0054,2.0074,2.0118,2.011,2.015,2.0187,2.0163,2.022,2.0231,2.0269,2.0278,2.0321,2.0284,2.0313,2.032,2.0328,2.0338,2.0119,2.0327,2.0327,2.0326,2.0326,2.0325,0,2.0154,2.0157,2.0199,2.023,2.0265,2.0219,2.0239,2.0271,2.0322,2.0337,2.037,2.0425,2.0467,2.0458,2.0496,2.0532,2.0512,2.0543,2.0539,2.054,2.037,2.0348,2.0559,2.0559,2.0559,2.0559,2.0559,2.0559,2.0271,2.0352,2.0338,2.0424,2.0426,2.0481,2.0497,2.0515,2.0526,2.059,2.0625,2.0619,2.0623,2.066,2.0696,2.0693,2.0708,2.0747,2.0736,2.0576,2.0553,2.0531,2.051,2.0751,2.0751,2.0902,2.0904,2.0905]},{"header":{"parameterUnit":"m.s-1","parameterCategory":1,"la1":30.2991,"la2":30.254,"lo1":-89.0895,"lo2":-89.0444,"dy":0.0017,"dx":0.0017,"nx":28,"ny":28,"refTime":"2024-02-19T03:00:00:Z","depth":0,"parameterNumber":3,"parameterNumberName":"V-component_of_WINDS"},"data":[0,0,0,0,0,0,0,0,0,0,0,0,0,0,0,0,0,0,0,0,0,0,0,0,0,0,0,0,0,0,0,0,0,0,0,0,0,0,0,0,0,0,0,0,0,0,0,0,0,0,0,0,0,0,0,0,0,0,-0.6757,-0.6756,0,-0.6651,-0.6649,-0.6648,-0.6618,-0.6619,-0.662,-0.662,-0.6511,-0.6508,-0.6504,0,0,0,0,0,0,0,0,0,0,0,0,0,-0.6936,-0.6933,-0.6757,-0.6756,-0.6755,-0.6651,-0.6649,-0.6648,-0.6618,-0.6619,-0.662,-0.662,-0.6512,-0.6508,-0.6504,0,0,0,0,0,0,0,0,0,0,0,0,0,-0.6847,-0.6932,-0.6758,-0.6727,-0.6724,-0.6651,-0.6649,-0.6648,-0.6618,-0.6619,-0.662,-0.6621,-0.6513,-0.6508,-0.6503,-0.6453,0,0,-0.6487,-0.6485,0,0,0,0,0,0,0,0,-0.6852,-0.684,-0.6733,-0.6729,-0.6725,-0.6649,-0.6672,-0.6582,-0.6618,-0.6658,-0.662,-0.6621,-0.6556,-0.6547,-0.6525,-0.6448,-0.6444,-0.6487,-0.6484,-0.6482,-0.648,0,0,0,0,0,0,0,-0.6858,-0.6845,-0.6715,-0.6732,-0.6727,-0.6719,-0.6708,-0.6655,-0.6603,-0.6655,-0.6652,-0.664,-0.6554,-0.6531,-0.6523,-0.6442,-0.6487,-0.6483,-0.6479,-0.6477,-0.632,-0.6319,0,0,0,0,0,0,-0.687,-0.685,-0.6719,-0.6712,-0.6792,-0.6715,-0.6702,-0.6672,-0.6604,-0.6594,-0.6639,-0.6639,-0.6539,-0.6529,-0.6519,-0.6456,-0.6482,-0.6477,-0.6474,-0.6321,-0.6319,-0.6318,0,0,0,0,0,0,-0.6873,-0.6858,-0.6723,-0.678,-0.6763,-0.6711,-0.6678,-0.667,-0.6646,-0.6592,-0.6583,-0.6625,-0.6539,-0.6526,-0.647,-0.6452,-0.6474,-0.647,-0.6322,-0.632,-0.6319,-0.633,0,0,0,0,0,0,-0.6879,-0.686,-0.684,-0.678,-0.676,-0.6675,-0.6677,-0.6667,-0.6637,-0.6636,-0.6576,-0.6567,-0.6539,-0.6478,-0.6465,-0.6445,-0.6466,-0.6323,-0.6321,-0.6319,-0.6331,-0.6329,-0.6327,0,0,0,0,0,-0.6885,-0.6847,-0.6839,-0.6823,-0.6734,-0.6674,-0.6663,-0.6631,-0.6636,-0.6616,-0.6581,-0.6569,-0.6456,-0.6472,-0.6457,-0.6436,-0.6324,-0.6322,-0.6319,-0.6332,-0.6329,-0.6327,0,0,0,0,0,0,-0.6905,-0.6839,-0.6829,-0.677,-0.6728,-0.667,-0.6643,-0.6629,-0.6585,-0.6585,-0.6548,-0.6535,-0.6482,-0.6453,-0.6473,-0.6385,-0.639,-0.6385,-0.6405,-0.6402,-0.64,-0.6408,-0.6461,0,0,0,0,0,-0.6903,-0.686,-0.6804,-0.6758,-0.6738,-0.6694,-0.6667,-0.6647,-0.6602,-0.6584,-0.6545,-0.6502,-0.6457,-0.6428,-0.6384,-0.6327,-0.6314,-0.6305,-0.6303,-0.6302,-0.6297,-0.6266,-0.6262,-0.631,-0.631,-0.631,0,0,-0.6897,-0.6856,-0.6831,-0.6761,-0.6726,-0.6683,-0.6679,-0.6634,-0.6601,-0.6577,-0.6521,-0.6492,-0.6442,-0.6386,-0.6359,-0.636,-0.6282,-0.6299,-0.6298,-0.6294,-0.6263,-0.6259,-0.6255,-0.6309,-0.6309,-0.6309,0,0,-0.6865,-0.683,-0.6787,-0.6753,-0.67,-0.6672,-0.6662,-0.6605,-0.6585,-0.6529,-0.651,-0.6472,-0.6394,-0.636,-0.6332,-0.6289,-0.6276,-0.6276,-0.6265,-0.6235,-0.6231,-0.6228,-0.6213,-0.6208,-0.6271,-0.6271,-0.6271,0,-0.6865,-0.6799,-0.6767,-0.6723,-0.6693,-0.6669,-0.6626,-0.6594,-0.653,-0.651,-0.6513,-0.6416,-0.6381,-0.6317,-0.6306,-0.6285,-0.6272,-0.6281,-0.6235,-0.6231,-0.6227,-0.6212,-0.6206,-0.6272,-0.6272,-0.6272,-0.6272,0,-0.6801,-0.6756,-0.6729,-0.6667,-0.6635,-0.6591,-0.6553,-0.6524,-0.6507,-0.6478,-0.6422,-0.6379,-0.6326,-0.6309,-0.6292,-0.6243,-0.6245,-0.6242,-0.6247,-0.6223,-0.6208,-0.6202,-0.6272,-0.6272,-0.6272,-0.6272,0,0,-0.6777,-0.67,-0.669,-0.6663,-0.6604,-0.6569,-0.6525,-0.6473,-0.6449,-0.6406,-0.6368,-0.6305,-0.6301,-0.627,-0.6249,-0.6223,-0.6192,-0.6222,-0.6221,-0.6218,-0.6136,-0.6138,-0.6132,-0.6184,-0.6182,-0.6182,-0.614,0,-0.6737,-0.6657,-0.6628,-0.6563,-0.6521,-0.6499,-0.6461,-0.6421,-0.6394,-0.6355,-0.6325,-0.6281,-0.628,-0.6261,-0.6234,-0.6201,-0.6175,-0.6204,-0.6148,-0.6147,-0.6161,-0.6124,-0.6126,-0.6089,-0.6134,-0.6133,-0.6132,0,-0.6679,-0.6636,-0.6567,-0.6515,-0.6496,-0.6462,-0.6413,-0.6376,-0.6331,-0.6313,-0.6279,-0.626,-0.6214,-0.6223,-0.6159,-0.618,-0.6156,-0.6137,-0.6134,-0.6127,-0.6137,-0.6116,-0.6076,-0.6071,-0.6123,-0.6123,-0.6124,0,-0.6668,-0.6593,-0.6542,-0.6519,-0.6457,-0.6434,-0.6407,-0.6362,-0.6334,-0.6291,-0.6272,-0.6225,-0.6199,-0.6163,-0.6132,-0.6141,-0.6072,-0.6077,-0.6056,-0.6056,-0.6041,-0.6042,-0.5996,-0.6027,-0.6027,-0.6027,-0.6027,0,-0.6626,-0.6585,-0.6536,-0.6505,-0.6458,-0.6425,-0.638,-0.6352,-0.6313,-0.6276,-0.6255,-0.6221,-0.6182,-0.6144,-0.6119,-0.6071,-0.6059,-0.6044,-0.6038,-0.6045,-0.6047,-0.6028,-0.603,-0.6025,-0.6026,-0.6026,-0.6026,0,-0.6605,-0.6571,-0.6514,-0.646,-0.6446,-0.6414,-0.6368,-0.6337,-0.631,-0.6263,-0.625,-0.6208,-0.6161,-0.6127,-0.6067,-0.6051,-0.5999,-0.5993,-0.6014,-0.601,-0.599,-0.5993,-0.593,-0.5921,-0.5958,-0.5958,-0.5958,0,-0.658,-0.6548,-0.6491,-0.6465,-0.6438,-0.6396,-0.6367,-0.6334,-0.6304,-0.6252,-0.6227,-0.6179,-0.6139,-0.6066,-0.603,-0.5984,-0.5977,-0.5958,-0.5969,-0.5978,-0.5976,-0.5978,-0.5975,-0.5956,-0.5956,-0.5956,-0.5955,0,-0.654,-0.6525,-0.6483,-0.6436,-0.6402,-0.6363,-0.6324,-0.6304,-0.6265,-0.6233,-0.6185,-0.6154,-0.6093,-0.6046,-0.5997,-0.597,-0.5956,-0.5952,-0.5945,-0.5952,-0.5965,-0.5958,-0.6009,-0.5954,-0.5954,-0.5954,-0.5954,-0.5954,-0.6515,-0.6486,-0.6441,-0.6396,-0.6364,-0.6328,-0.6297,-0.6266,-0.6225,-0.6173,-0.6157,-0.6108,-0.6065,-0.5998,-0.597,-0.5932,-0.5932,-0.5921,-0.5918,-0.5916,-0.5916,-0.5972,-0.5923,-0.5923,-0.5923,-0.5923,-0.5923,0,-0.6473,-0.6444,-0.6403,-0.6349,-0.6314,-0.6305,-0.6262,-0.6233,-0.619,-0.6151,-0.6113,-0.6058,-0.6013,-0.5974,-0.5927,-0.5904,-0.5897,-0.5893,-0.5894,-0.5888,-0.5919,-0.593,-0.59,-0.59,-0.59,-0.59,-0.59,-0.59,-0.6447,-0.6397,-0.6377,-0.6311,-0.6282,-0.6233,-0.621,-0.6177,-0.6146,-0.6087,-0.6049,-0.6024,-0.5985,-0.5936,-0.5894,-0.5884,-0.5868,-0.5865,-0.5854,-0.5883,-0.5886,-0.5888,-0.5898,-0.5862,-0.5862,-0.5826,-0.5826,-0.5825]}]]